New Orleans Lakefront, LA

9:43 AM CST on November 20, 2017 (GMT -0600)
Lakefront

Weather History for KNEW - January, 2012

Change the Weather History Date:

Thursday, January 12, 2012

  Actual Average Record
Temperature  
Mean Temperature 51 °F 53 °F  
Max Temperature 60 °F 62 °F 80 °F (1989)
Min Temperature 42 °F 44 °F 17 °F (1962)
Degree Days  
Heating Degree Days 14 12  
Month to date heating degree days 78 144  
Since 1 July heating degree days 480 625  
Cooling Degree Days 0 0  
Month to date cooling degree days 12 10  
Year to date cooling degree days 12 10  
Growing Degree Days 2 (Base 50)    
Moisture  
Dew Point 42 °F    
Average Humidity 57    
Maximum Humidity 89    
Minimum Humidity 24    
Precipitation  
Precipitation 0.00 in 0.17 in 3.84 in (1998)
Month to date precipitation 0.03 1.97  
Year to date precipitation 0.03 1.97  
Snow  
Snow 0.00 in - - ()
Month to date snowfall 0.0  
Since 1 July snowfall 0.0  
Snow Depth 0.00 in    
Sea Level Pressure  
Sea Level Pressure 29.94 in    
Wind  
Wind Speed 15 mph (WNW)    
Max Wind Speed 28 mph    
Max Gust Speed 36 mph    
Visibility 10 miles    
Events      
T = Trace of Precipitation, MM = Missing Value Source: NWS Daily Summary

Daily Weather History Graph

Daily Weather History Graph

Search for Another Location

Airport or City:

Trip Planner

Search our weather history database for the weather conditions in past years. The results will help you decide how hot, cold, wet, or windy it might be!

Date:

Astronomy

Jan. 12, 2012 Rise Set
Actual Time 6:57 AM CST 5:19 PM CST
Civil Twilight 6:31 AM CST 5:45 PM CST
Nautical Twilight 6:01 AM CST 6:15 PM CST
Astronomical Twilight 5:32 AM CST 6:44 PM CST
Moon 9:04 PM CST (1/12) 8:59 AM CST (1/12)
Length of Visible Light 11h 14m
Length of Day
10h 22m
Waning Gibbous, 87% of the Moon is Illuminated
Jan 12
Waning Gibbous
Jan 16
Last Quarter
Jan 23
New
Jan 30
First Quarter
Feb 7
Full

Hourly Weather History & Observations

Time (CST) Temp. Windchill Dew Point Humidity Pressure Visibility Wind Dir Wind Speed Gust Speed Precip Events Conditions
12:53 AM 52.0 °F - 48.9 °F 89% 29.79 in 10.0 mi South 8.1 mph - N/A   Clear
1:53 AM 54.0 °F - 51.1 °F 90% 29.78 in 10.0 mi South 11.5 mph - N/A   Clear
2:53 AM 54.0 °F - 53.1 °F 97% 29.77 in 10.0 mi South 11.5 mph - N/A   Clear
3:53 AM 55.0 °F - 54.0 °F 96% 29.76 in 10.0 mi South 11.5 mph - N/A   Clear
4:53 AM 60.1 °F - 55.9 °F 86% 29.77 in 10.0 mi SSW 17.3 mph - N/A   Clear
5:53 AM 61.0 °F - 57.9 °F 90% 29.77 in 10.0 mi SW 21.9 mph 29.9 mph N/A   Partly Cloudy
6:53 AM 60.1 °F - 57.9 °F 93% 29.79 in 10.0 mi WSW 18.4 mph - N/A   Scattered Clouds
7:06 AM 59.0 °F - 57.2 °F 94% 29.81 in 10.0 mi WSW 15.0 mph - N/A   Mostly Cloudy
7:35 AM 59.0 °F - 57.2 °F 94% 29.83 in 10.0 mi West 20.7 mph - N/A   Scattered Clouds
7:53 AM 59.0 °F - 54.0 °F 83% 29.83 in 10.0 mi WNW 24.2 mph - N/A   Scattered Clouds
8:53 AM 57.0 °F - 50.0 °F 77% 29.88 in 10.0 mi WNW 27.6 mph - N/A   Partly Cloudy
9:09 AM 55.4 °F - 50.0 °F 82% 29.91 in 10.0 mi WNW 28.8 mph 33.4 mph N/A   Mostly Cloudy
9:53 AM 55.0 °F - 48.9 °F 80% 29.93 in 10.0 mi WNW 25.3 mph 34.5 mph N/A   Mostly Cloudy
10:53 AM 54.0 °F - 46.0 °F 75% 29.95 in 10.0 mi NW 27.6 mph 33.4 mph N/A   Mostly Cloudy
11:06 AM 53.6 °F - 44.6 °F 72% 29.97 in 10.0 mi NW 25.3 mph 33.4 mph N/A   Scattered Clouds
11:36 AM 53.6 °F - 44.6 °F 72% 29.97 in 10.0 mi NW 26.5 mph 33.4 mph N/A   Mostly Cloudy
11:53 AM 54.0 °F - 44.1 °F 69% 29.95 in 10.0 mi NW 26.5 mph 33.4 mph N/A   Mostly Cloudy
12:18 PM 53.6 °F - 42.8 °F 67% 29.96 in 10.0 mi NW 25.3 mph 33.4 mph N/A   Partly Cloudy
12:53 PM 55.0 °F - 42.1 °F 62% 29.95 in 10.0 mi NW 23.0 mph 29.9 mph N/A   Clear
1:53 PM 55.0 °F - 37.0 °F 51% 29.95 in 10.0 mi NW 23.0 mph - N/A   Clear
2:53 PM 55.0 °F - 34.0 °F 45% 29.96 in 10.0 mi NW 23.0 mph - N/A   Clear
3:53 PM 54.0 °F - 32.0 °F 43% 29.98 in 10.0 mi WNW 23.0 mph 28.8 mph N/A   Clear
4:53 PM 53.1 °F - 28.0 °F 38% 30.00 in 10.0 mi NW 25.3 mph - N/A   Clear
5:53 PM 52.0 °F - 26.1 °F 37% 30.04 in 10.0 mi NW 23.0 mph - N/A   Clear
6:53 PM 50.0 °F - 26.1 °F 39% 30.06 in 10.0 mi NW 25.3 mph - N/A   Clear
7:53 PM 50.0 °F - 28.0 °F 43% 30.09 in 10.0 mi NW 25.3 mph - N/A   Clear
8:53 PM 48.0 °F - 27.0 °F 44% 30.12 in 10.0 mi NW 24.2 mph - N/A   Clear
9:53 PM 46.0 °F 37.2 °F 27.0 °F 47% 30.15 in 10.0 mi NNW 26.5 mph 32.2 mph N/A   Clear
10:53 PM 44.1 °F 34.2 °F 23.0 °F 43% 30.17 in 10.0 mi NNW 28.8 mph - N/A   Clear
11:53 PM 43.0 °F 33.3 °F 24.1 °F 47% 30.20 in 10.0 mi NW 25.3 mph 31.1 mph N/A   Clear